sat.trackr.live / text

‹ back to catalog

BEIDOU-3 M5 (C23)

NORAD 43581 · 2018-062A

PAYLOAD ACTIVE UNKNOWN

§ Identity

Operator
Country
PRC
Launch date
2018-07-29
Launch site
XICLF
Launch vehicle
Mass (kg)
RCS (m²)

Purposes: nav

External: N2YO · Heavens-Above · Gunter

§ Orbital elements

Epoch: 2026-09-19T01:47:07.417824Z

Period
773.24 min
Inclination
54.0825°
Eccentricity
0.0003909
Mean motion
1.86229013 rev/d
Perigee alt
21,517.3 km
Apogee alt
21,539.2 km
Semi-major
27,906.4 km
B*
0.0000e+0
RAAN
179.1139°
Arg perigee
314.9426°
Mean anomaly
45.0471°
Rev number
5,538

§ Raw data

BEIDOU-3 M5 (C23)1 43581U 18062A   26262.07439141 -.00000025  00000+0  00000+0 0  99912 43581  54.0825 179.1139 0003909 314.9426  45.0471  1.86229013 55382

JSON: /api/v1/satellites/43581 · /tle

For live sub-satellite position, see the globe view (requires WebGL).

§ Visibility from observer

Set your observer location to see the next 7 days of passes ≥ 10°. The values pass through the URL so the page stays shareable.

No JS? Fill the form by hand. The geolocation button needs JavaScript.